Weather History for St. Joseph, MO

Change the Weather History Date:

Saturday, December 1, 2012

  Actual Average Record
Temperature  
Mean Temperature 52 °F 34 °F  
Max Temperature 66 °F 45 °F 73 °F (1982)
Min Temperature 38 °F 24 °F 5 °F (1985)
Degree Days  
Heating Degree Days 13 31  
Month to date heating degree days 13 31  
Since 1 July heating degree days 1125 1142  
Cooling Degree Days 0 0  
Month to date cooling degree days 0 0  
Year to date cooling degree days 1565 1221  
Growing Degree Days 2 (Base 50)    
Moisture  
Dew Point 48 °F    
Average Humidity 87    
Maximum Humidity 100    
Minimum Humidity 73    
Precipitation  
Precipitation 0.00 in 0.05 in 0.83 in (1986)
Month to date precipitation 0.00 0.05  
Year to date precipitation 22.31 34.13  
Sea Level Pressure  
Sea Level Pressure 29.87 in    
Wind  
Wind Speed 5 mph (South)    
Max Wind Speed 12 mph    
Max Gust Speed 15 mph    
Visibility 4 miles    
Events Fog    
T = Trace of Precipitation, MM = Missing Value Source: NWS Daily Summary

Daily Weather History Graph

Daily Weather History Graph

Search for Another Location

Airport:

Trip Planner

Search our weather history database for the weather conditions in past years. The results will help you decide how hot, cold, wet, or windy it might be!

Date:

Astronomy

Dec. 01, 2012 Rise Set
Actual Time 7:22 AM CST 4:55 PM CST
Civil Twilight 6:52 AM CST 5:25 PM CST
Nautical Twilight 6:18 AM CST 5:58 PM CST
Astronomical Twilight 5:46 AM CST 6:31 PM CST
Moon 7:46 PM CST (12/1) 9:35 AM CST (12/1)
Length of Visible Light 10h 33m
Length of Day
9h 33m
Waning Gibbous, 91% of the Moon is Illuminated
Dec 1
Waning Gibbous
Dec 6
Last Quarter
Dec 13
New
Dec 19
First Quarter
Dec 28
Full

Hourly Weather History & Observations

Time (CST) Temp. Windchill Dew Point Humidity Pressure Visibility Wind Dir Wind Speed Gust Speed Precip Events Conditions
1:07 AM 44.6 °F - 37.4 °F 76% 29.98 in 10.0 mi Calm Calm - N/A   Overcast
1:53 AM 46.9 °F - 39.0 °F 74% 29.98 in 10.0 mi Calm Calm - N/A   Overcast
3:53 AM 51.1 °F - 45.0 °F 80% 29.95 in 7.0 mi SSE 6.9 mph - N/A   Overcast
4:53 AM 54.0 °F - 48.9 °F 83% 29.92 in 6.0 mi South 8.1 mph - N/A   Haze
5:53 AM 54.0 °F - 50.0 °F 86% 29.91 in 6.0 mi South 9.2 mph - N/A   Overcast
6:53 AM 55.0 °F - 51.1 °F 86% 29.90 in 5.0 mi SSE 8.1 mph - N/A   Overcast
7:53 AM 55.9 °F - 52.0 °F 87% 29.91 in 5.0 mi SSE 4.6 mph - N/A   Overcast
8:18 AM 55.4 °F - 51.8 °F 88% 29.90 in 2.5 mi Calm Calm - N/A   Overcast
8:29 AM 55.4 °F - 51.8 °F 88% 29.89 in 2.5 mi SSE 3.5 mph - N/A   Overcast
8:36 AM 55.4 °F - 53.6 °F 94% 29.89 in 3.0 mi South 6.9 mph - N/A   Overcast
9:53 AM 57.9 °F - 54.0 °F 87% 29.90 in 4.0 mi South 6.9 mph - N/A   Overcast
10:01 AM 57.2 °F - 53.6 °F 88% 29.88 in 4.0 mi South 8.1 mph - N/A   Overcast
10:53 AM 60.1 °F - 55.0 °F 83% 29.88 in 5.0 mi SSE 8.1 mph - N/A   Haze
11:48 AM 62.6 °F - 55.4 °F 77% 29.85 in 5.0 mi South 9.2 mph - N/A   Haze
11:53 AM 62.1 °F - 55.0 °F 78% 29.85 in 5.0 mi South 9.2 mph - N/A   Haze
2:14 PM 64.4 °F - 55.4 °F 73% 29.80 in 8.0 mi South 5.8 mph - N/A   Overcast
2:53 PM 64.9 °F - 55.9 °F 73% 29.79 in 9.0 mi South 8.1 mph - N/A   Mostly Cloudy
3:31 PM 64.4 °F - 55.4 °F 73% 29.79 in 9.0 mi SSE 4.6 mph - N/A   Mostly Cloudy
3:53 PM 64.0 °F - 55.9 °F 75% 29.78 in 9.0 mi SSE 6.9 mph - N/A   Mostly Cloudy
4:53 PM 57.9 °F - 53.1 °F 84% 29.80 in 6.0 mi Calm Calm - N/A   Haze
5:53 PM 54.0 °F - 50.0 °F 86% 29.83 in 6.0 mi Calm Calm - N/A   Mostly Cloudy
6:53 PM 48.0 °F - 46.9 °F 96% 29.83 in 5.0 mi Calm Calm - N/A   Partly Cloudy
7:29 PM 46.4 °F - 46.4 °F 100% 29.84 in 1.2 mi Calm Calm - N/A   Clear
7:32 PM 48.2 °F - 46.4 °F 93% 29.84 in 0.5 mi Calm Calm - N/A Fog Fog
7:53 PM 48.9 °F - 46.9 °F 93% 29.85 in 0.5 mi Calm Calm - N/A Fog Fog
8:03 PM 44.6 °F - 42.8 °F 93% 29.84 in 0.2 mi Calm Calm - N/A Fog Fog
8:12 PM 44.6 °F 43.1 °F 42.8 °F 93% 29.84 in 0.2 mi South 3.5 mph - N/A Fog Fog
8:23 PM 44.6 °F 42.2 °F 42.8 °F 93% 29.84 in 0.2 mi SW 4.6 mph - N/A Fog Fog
8:36 PM 44.6 °F 42.2 °F 42.8 °F 93% 29.84 in 0.2 mi WSW 4.6 mph - N/A Fog Fog
8:53 PM 45.0 °F - 44.1 °F 97% 29.85 in 0.2 mi Calm Calm - N/A Fog Fog
9:31 PM 44.6 °F 43.1 °F 44.6 °F 100% 29.86 in 0.2 mi South 3.5 mph - N/A Fog Fog
9:53 PM 45.0 °F 43.5 °F 44.1 °F 97% 29.86 in 0.2 mi SSE 3.5 mph - N/A Fog Fog
10:11 PM 44.6 °F 43.1 °F 44.6 °F 100% 29.87 in 0.2 mi SE 3.5 mph - N/A Fog Fog
10:20 PM 44.6 °F 42.2 °F 44.6 °F 100% 29.86 in 0.2 mi SSE 4.6 mph - N/A Fog Fog
10:30 PM 42.8 °F 40.1 °F 42.8 °F 100% 29.86 in 0.2 mi SSE 4.6 mph - N/A Fog Fog
10:53 PM 41.0 °F 39.0 °F 39.9 °F 96% 29.87 in 0.2 mi South 3.5 mph - N/A Fog Fog
11:06 PM 41.0 °F - 39.2 °F 93% 29.88 in 0.2 mi Calm Calm - N/A Fog Fog
11:39 PM 41.0 °F - 39.2 °F 93% 29.89 in 0.2 mi Calm Calm - N/A Fog Fog
11:53 PM 39.9 °F - 37.9 °F 93% 29.90 in 0.2 mi Calm Calm - N/A Fog Fog